Time,TemperatureF,DewpointF,PressureIn,WindDirection,WindDirectionDegrees,WindSpeedMPH,WindSpeedGustMPH,Humidity,HourlyPrecipIn,Conditions,Clouds,dailyrainin,SoftwareType,DateUTC
2013-06-26 00:01:00,75.9,60.8,29.56,SE,139,0.0,4.0,61,0.00,,,0.00,WUHU216WMR968SP,2013-06-26 05:01:00,
2013-06-26 00:06:00,75.9,60.8,29.56,SE,139,0.0,2.2,62,0.00,,,0.00,WUHU216WMR968SP,2013-06-26 05:06:00,
2013-06-26 00:11:00,75.9,60.8,29.59,SE,139,0.0,0.0,62,0.00,,,0.00,WUHU216WMR968SP,2013-06-26 05:11:00,
2013-06-26 00:16:00,75.7,60.8,29.59,SE,139,0.0,0.0,62,0.00,,,0.00,WUHU216WMR968SP,2013-06-26 05:16:00,
2013-06-26 00:21:00,75.9,60.8,29.59,SE,139,0.0,0.0,62,0.00,,,0.00,WUHU216WMR968SP,2013-06-26 05:21:00,
2013-06-26 00:26:00,75.7,60.8,29.59,SE,139,0.0,0.0,62,0.00,,,0.00,WUHU216WMR968SP,2013-06-26 05:26:00,
2013-06-26 00:31:00,75.7,62.6,29.59,SE,139,0.0,2.2,63,0.00,,,0.00,WUHU216WMR968SP,2013-06-26 05:31:00,
2013-06-26 00:36:00,75.7,62.6,29.59,SE,139,0.0,2.7,63,0.00,,,0.00,WUHU216WMR968SP,2013-06-26 05:36:00,
2013-06-26 00:41:00,75.6,62.6,29.59,SE,139,0.0,2.7,63,0.00,,,0.00,WUHU216WMR968SP,2013-06-26 05:41:00,
2013-06-26 00:46:00,75.6,62.6,29.59,SE,139,0.0,2.7,63,0.00,,,0.00,WUHU216WMR968SP,2013-06-26 05:46:00,
2013-06-26 00:51:00,75.4,62.6,29.59,SE,139,0.0,0.0,64,0.00,,,0.00,WUHU216WMR968SP,2013-06-26 05:51:00,
2013-06-26 00:56:00,75.4,62.6,29.59,SE,139,0.0,0.0,64,0.00,,,0.00,WUHU216WMR968SP,2013-06-26 05:56:00,
2013-06-26 01:01:00,75.0,62.6,29.59,SE,139,0.0,0.0,65,0.00,,,0.00,WUHU216WMR968SP,2013-06-26 06:01:00,
2013-06-26 01:06:00,74.8,62.6,29.59,SE,139,0.0,0.0,66,0.00,,,0.00,WUHU216WMR968SP,2013-06-26 06:06:00,
2013-06-26 01:11:00,74.7,64.4,29.59,SE,139,0.0,0.0,67,0.00,,,0.00,WUHU216WMR968SP,2013-06-26 06:11:00,
2013-06-26 01:16:00,74.7,64.4,29.59,SE,139,0.0,0.0,67,0.00,,,0.00,WUHU216WMR968SP,2013-06-26 06:16:00,
2013-06-26 01:21:00,74.5,64.4,29.59,SE,139,0.0,2.2,68,0.00,,,0.00,WUHU216WMR968SP,2013-06-26 06:21:00,
2013-06-26 01:26:00,74.3,64.4,29.59,SE,139,0.0,2.2,67,0.00,,,0.00,WUHU216WMR968SP,2013-06-26 06:26:00,
2013-06-26 01:31:00,73.9,62.6,29.59,SE,139,0.0,0.0,67,0.00,,,0.00,WUHU216WMR968SP,2013-06-26 06:31:00,
2013-06-26 01:36:00,73.8,62.6,29.59,SE,139,0.0,0.0,68,0.00,,,0.00,WUHU216WMR968SP,2013-06-26 06:36:00,
2013-06-26 01:41:00,73.8,62.6,29.59,SE,139,0.0,3.1,69,0.00,,,0.00,WUHU216WMR968SP,2013-06-26 06:41:00,
2013-06-26 01:46:00,73.9,62.6,29.59,SE,139,0.0,3.1,70,0.00,,,0.00,WUHU216WMR968SP,2013-06-26 06:46:00,
2013-06-26 01:51:00,73.9,62.6,29.59,SE,139,0.0,0.0,70,0.00,,,0.00,WUHU216WMR968SP,2013-06-26 06:51:00,
2013-06-26 01:56:00,73.8,62.6,29.59,SE,139,0.0,0.0,71,0.00,,,0.00,WUHU216WMR968SP,2013-06-26 06:56:00,
2013-06-26 02:01:00,73.8,62.6,29.59,SE,139,0.0,0.0,71,0.00,,,0.00,WUHU216WMR968SP,2013-06-26 07:01:00,
2013-06-26 02:06:00,73.8,64.4,29.59,SE,139,0.0,0.0,72,0.00,,,0.00,WUHU216WMR968SP,2013-06-26 07:06:00,
2013-06-26 02:11:00,73.6,64.4,29.59,SE,139,0.0,2.2,72,0.00,,,0.00,WUHU216WMR968SP,2013-06-26 07:11:00,
2013-06-26 02:16:00,73.2,64.4,29.59,SE,139,0.0,2.2,72,0.00,,,0.00,WUHU216WMR968SP,2013-06-26 07:16:00,
2013-06-26 02:21:00,73.2,64.4,29.59,SE,139,0.0,2.2,73,0.00,,,0.00,WUHU216WMR968SP,2013-06-26 07:21:00,
2013-06-26 02:26:00,73.0,64.4,29.59,SE,139,0.0,2.2,73,0.00,,,0.00,WUHU216WMR968SP,2013-06-26 07:26:00,
2013-06-26 02:31:00,73.0,64.4,29.59,SE,139,0.0,0.0,75,0.00,,,0.00,WUHU216WMR968SP,2013-06-26 07:31:00,
2013-06-26 02:36:00,73.0,66.2,29.59,SE,139,0.0,0.0,76,0.00,,,0.00,WUHU216WMR968SP,2013-06-26 07:36:00,
2013-06-26 02:41:00,73.0,66.2,29.59,SE,139,0.0,0.0,77,0.00,,,0.00,WUHU216WMR968SP,2013-06-26 07:41:00,
2013-06-26 02:46:00,73.0,66.2,29.59,SE,139,0.0,0.0,77,0.00,,,0.00,WUHU216WMR968SP,2013-06-26 07:46:00,
2013-06-26 02:51:00,72.9,66.2,29.59,SE,139,0.0,0.0,77,0.00,,,0.00,WUHU216WMR968SP,2013-06-26 07:51:00,
2013-06-26 02:56:00,72.9,66.2,29.59,SE,139,0.0,0.0,77,0.00,,,0.00,WUHU216WMR968SP,2013-06-26 07:56:00,
2013-06-26 03:01:00,72.5,66.2,29.59,SE,139,0.0,0.0,77,0.00,,,0.00,WUHU216WMR968SP,2013-06-26 08:01:00,
2013-06-26 03:06:00,72.3,64.4,29.59,SE,139,0.0,0.0,77,0.00,,,0.00,WUHU216WMR968SP,2013-06-26 08:06:00,
2013-06-26 03:11:00,72.1,64.4,29.59,SE,139,0.0,0.0,77,0.00,,,0.00,WUHU216WMR968SP,2013-06-26 08:11:00,
2013-06-26 03:16:00,72.0,64.4,29.59,SE,139,0.0,0.0,77,0.00,,,0.00,WUHU216WMR968SP,2013-06-26 08:16:00,
2013-06-26 03:21:00,72.0,64.4,29.59,SE,139,0.0,0.0,78,0.00,,,0.00,WUHU216WMR968SP,2013-06-26 08:21:00,
2013-06-26 03:26:00,72.1,64.4,29.59,SE,139,0.0,0.0,80,0.00,,,0.00,WUHU216WMR968SP,2013-06-26 08:26:00,
2013-06-26 03:31:00,72.3,64.4,29.59,SE,139,0.0,0.0,80,0.00,,,0.00,WUHU216WMR968SP,2013-06-26 08:31:00,
2013-06-26 03:36:00,72.3,66.2,29.59,SE,139,0.0,0.0,81,0.00,,,0.00,WUHU216WMR968SP,2013-06-26 08:36:00,
2013-06-26 03:41:00,72.5,68.0,29.59,SE,139,0.0,0.0,81,0.00,,,0.00,WUHU216WMR968SP,2013-06-26 08:41:00,
2013-06-26 03:46:00,72.5,68.0,29.59,SE,139,0.0,0.0,81,0.00,,,0.00,WUHU216WMR968SP,2013-06-26 08:46:00,
2013-06-26 03:51:00,72.1,66.2,29.59,SE,139,0.0,0.0,81,0.00,,,0.00,WUHU216WMR968SP,2013-06-26 08:51:00,
2013-06-26 03:56:00,72.0,64.4,29.59,SE,139,0.0,0.0,80,0.00,,,0.00,WUHU216WMR968SP,2013-06-26 08:56:00,
2013-06-26 04:01:00,71.8,64.4,29.59,SE,139,0.0,2.7,80,0.00,,,0.00,WUHU216WMR968SP,2013-06-26 09:01:00,
2013-06-26 04:06:00,71.8,66.2,29.59,SE,139,0.0,2.7,81,0.00,,,0.00,WUHU216WMR968SP,2013-06-26 09:06:00,
2013-06-26 04:11:00,72.0,66.2,29.59,South,179,0.0,3.1,81,0.00,,,0.00,WUHU216WMR968SP,2013-06-26 09:11:00,
2013-06-26 04:16:00,72.1,66.2,29.59,SSE,162,0.0,3.1,83,0.00,,,0.00,WUHU216WMR968SP,2013-06-26 09:16:00,
2013-06-26 04:21:00,72.3,66.2,29.59,SE,146,0.0,3.6,83,0.00,,,0.00,WUHU216WMR968SP,2013-06-26 09:21:00,
2013-06-26 04:26:00,72.5,68.0,29.59,SE,146,0.0,3.6,84,0.00,,,0.00,WUHU216WMR968SP,2013-06-26 09:26:00,
2013-06-26 04:31:00,72.5,68.0,29.59,SE,146,0.0,0.0,83,0.00,,,0.00,WUHU216WMR968SP,2013-06-26 09:31:00,
2013-06-26 04:36:00,72.3,66.2,29.59,SE,146,0.0,2.7,83,0.00,,,0.00,WUHU216WMR968SP,2013-06-26 09:36:00,
2013-06-26 04:41:00,72.1,66.2,29.59,SE,146,0.0,2.7,82,0.00,,,0.00,WUHU216WMR968SP,2013-06-26 09:41:00,
2013-06-26 04:46:00,71.8,66.2,29.59,SE,146,0.0,2.7,82,0.00,,,0.00,WUHU216WMR968SP,2013-06-26 09:46:00,
2013-06-26 04:51:00,71.8,66.2,29.59,SE,146,0.0,2.7,82,0.00,,,0.00,WUHU216WMR968SP,2013-06-26 09:51:00,
2013-06-26 04:56:00,71.8,66.2,29.59,South,189,0.0,2.7,82,0.00,,,0.00,WUHU216WMR968SP,2013-06-26 09:56:00,
2013-06-26 05:01:00,72.1,66.2,29.59,South,189,0.0,2.2,83,0.00,,,0.00,WUHU216WMR968SP,2013-06-26 10:01:00,
2013-06-26 05:06:00,72.3,66.2,29.59,South,174,0.0,4.0,84,0.00,,,0.00,WUHU216WMR968SP,2013-06-26 10:06:00,
2013-06-26 05:11:00,72.5,68.0,29.59,SSE,161,0.0,4.0,84,0.00,,,0.00,WUHU216WMR968SP,2013-06-26 10:11:00,
2013-06-26 05:16:00,72.7,68.0,29.59,South,190,0.0,3.1,84,0.00,,,0.00,WUHU216WMR968SP,2013-06-26 10:16:00,
2013-06-26 05:21:00,72.7,68.0,29.59,South,189,0.0,3.6,84,0.00,,,0.00,WUHU216WMR968SP,2013-06-26 10:21:00,
2013-06-26 05:26:00,72.5,68.0,29.59,SSW,194,0.0,4.9,83,0.00,,,0.00,WUHU216WMR968SP,2013-06-26 10:26:00,
2013-06-26 05:31:00,72.3,66.2,29.59,South,188,2.2,4.9,83,0.00,,,0.00,WUHU216WMR968SP,2013-06-26 10:31:00,
2013-06-26 05:36:00,72.1,66.2,29.59,SSE,166,0.0,3.6,83,0.00,,,0.00,WUHU216WMR968SP,2013-06-26 10:36:00,
2013-06-26 05:41:00,72.1,66.2,29.59,SSE,162,0.0,3.6,83,0.00,,,0.00,WUHU216WMR968SP,2013-06-26 10:41:00,
2013-06-26 05:46:00,72.1,66.2,29.59,South,180,2.2,3.1,83,0.00,,,0.00,WUHU216WMR968SP,2013-06-26 10:46:00,
2013-06-26 05:51:00,72.3,66.2,29.59,SSW,193,0.0,3.1,83,0.00,,,0.00,WUHU216WMR968SP,2013-06-26 10:51:00,
2013-06-26 05:56:00,72.5,68.0,29.62,South,189,0.0,3.6,84,0.00,,,0.00,WUHU216WMR968SP,2013-06-26 10:56:00,
2013-06-26 06:01:00,72.7,68.0,29.62,South,189,0.0,3.6,84,0.00,,,0.00,WUHU216WMR968SP,2013-06-26 11:01:00,
2013-06-26 06:06:00,72.5,68.0,29.62,South,189,0.0,3.1,83,0.00,,,0.00,WUHU216WMR968SP,2013-06-26 11:06:00,
2013-06-26 06:11:00,72.5,68.0,29.62,South,185,0.0,4.0,83,0.00,,,0.00,WUHU216WMR968SP,2013-06-26 11:11:00,
2013-06-26 06:16:00,72.5,68.0,29.62,South,185,0.0,4.0,83,0.00,,,0.00,WUHU216WMR968SP,2013-06-26 11:16:00,
2013-06-26 06:21:00,72.7,68.0,29.62,SSW,196,0.0,2.7,83,0.00,,,0.00,WUHU216WMR968SP,2013-06-26 11:21:00,
2013-06-26 06:26:00,73.2,68.0,29.62,SSW,194,0.0,2.7,84,0.00,,,0.00,WUHU216WMR968SP,2013-06-26 11:26:00,
2013-06-26 06:31:00,73.6,68.0,29.62,SSW,195,0.0,2.2,83,0.00,,,0.00,WUHU216WMR968SP,2013-06-26 11:31:00,
2013-06-26 06:36:00,74.1,68.0,29.62,South,181,2.2,3.6,82,0.00,,,0.00,WUHU216WMR968SP,2013-06-26 11:36:00,
2013-06-26 06:41:00,74.5,69.8,29.62,South,182,0.0,5.4,81,0.00,,,0.00,WUHU216WMR968SP,2013-06-26 11:41:00,
2013-06-26 06:46:00,74.8,69.8,29.62,South,174,0.0,5.4,81,0.00,,,0.00,WUHU216WMR968SP,2013-06-26 11:46:00,
2013-06-26 06:51:00,75.0,68.0,29.62,SSE,154,0.0,3.1,80,0.00,,,0.00,WUHU216WMR968SP,2013-06-26 11:51:00,
2013-06-26 06:56:00,75.4,68.0,29.62,South,190,2.2,3.6,80,0.00,,,0.00,WUHU216WMR968SP,2013-06-26 11:56:00,
2013-06-26 07:01:00,75.6,68.0,29.62,SSW,200,0.0,3.6,79,0.00,,,0.00,WUHU216WMR968SP,2013-06-26 12:01:00,
2013-06-26 07:06:00,75.7,68.0,29.62,SSW,200,2.2,4.0,78,0.00,,,0.00,WUHU216WMR968SP,2013-06-26 12:06:00,
2013-06-26 07:11:00,76.1,69.8,29.62,SSW,197,0.0,4.0,76,0.00,,,0.00,WUHU216WMR968SP,2013-06-26 12:11:00,
2013-06-26 07:16:00,76.6,68.0,29.62,SSW,207,2.2,5.8,73,0.00,,,0.00,WUHU216WMR968SP,2013-06-26 12:16:00,
2013-06-26 07:21:00,77.2,66.2,29.62,SSW,192,2.7,5.8,69,0.00,,,0.00,WUHU216WMR968SP,2013-06-26 12:21:00,
2013-06-26 07:26:00,77.7,66.2,29.62,SSW,202,2.5,5.8,68,0.00,,,0.00,WUHU216WMR968SP,2013-06-26 12:26:00,
2013-06-26 07:31:00,78.3,66.2,29.62,SW,214,4.9,5.8,67,0.00,,,0.00,WUHU216WMR968SP,2013-06-26 12:31:00,
2013-06-26 07:36:00,78.4,66.2,29.62,South,185,4.9,7.2,65,0.00,,,0.00,WUHU216WMR968SP,2013-06-26 12:36:00,
2013-06-26 07:41:00,78.4,66.2,29.62,SSW,197,4.5,7.2,64,0.00,,,0.00,WUHU216WMR968SP,2013-06-26 12:41:00,
2013-06-26 07:46:00,78.4,66.2,29.62,SSW,196,5.8,8.1,64,0.00,,,0.00,WUHU216WMR968SP,2013-06-26 12:46:00,
2013-06-26 07:51:00,78.8,66.2,29.62,South,184,5.8,8.1,64,0.00,,,0.00,WUHU216WMR968SP,2013-06-26 12:51:00,
2013-06-26 07:56:00,79.3,64.4,29.62,SSW,204,6.3,8.1,62,0.00,,,0.00,WUHU216WMR968SP,2013-06-26 12:56:00,
2013-06-26 08:01:00,79.9,66.2,29.62,SSW,205,4.8,8.7,60,0.00,,,0.00,WUHU216WMR968SP,2013-06-26 13:01:00,
2013-06-26 08:06:00,80.2,64.4,29.62,SSW,203,4.0,8.7,58,0.00,,,0.00,WUHU216WMR968SP,2013-06-26 13:06:00,
2013-06-26 08:11:00,80.1,64.4,29.65,SSW,206,5.8,7.2,59,0.00,,,0.00,WUHU216WMR968SP,2013-06-26 13:11:00,
2013-06-26 08:16:00,80.6,64.4,29.65,SSW,195,3.6,6.3,59,0.00,,,0.00,WUHU216WMR968SP,2013-06-26 13:16:00,
2013-06-26 08:21:00,81.5,66.2,29.65,SSW,201,5.9,8.7,57,0.00,,,0.00,WUHU216WMR968SP,2013-06-26 13:21:00,
2013-06-26 08:26:00,82.6,64.4,29.65,SSW,197,5.6,10.5,54,0.00,,,0.00,WUHU216WMR968SP,2013-06-26 13:26:00,
2013-06-26 08:31:00,84.7,60.8,29.65,SSW,196,6.0,10.5,46,0.00,,,0.00,WUHU216WMR968SP,2013-06-26 13:31:00,
2013-06-26 08:36:00,87.4,60.8,29.65,SSE,168,4.5,10.5,40,0.00,,,0.00,WUHU216WMR968SP,2013-06-26 13:36:00,
2013-06-26 08:41:00,89.8,60.8,29.65,South,185,4.9,8.1,38,0.00,,,0.00,WUHU216WMR968SP,2013-06-26 13:41:00,
2013-06-26 08:46:00,91.2,57.2,29.65,SSW,193,5.4,8.1,32,0.00,,,0.00,WUHU216WMR968SP,2013-06-26 13:46:00,
2013-06-26 08:51:00,90.7,57.2,29.65,SSW,210,3.9,7.6,31,0.00,,,0.00,WUHU216WMR968SP,2013-06-26 13:51:00,
2013-06-26 08:56:00,91.2,55.4,29.65,SSW,193,6.0,8.7,30,0.00,,,0.00,WUHU216WMR968SP,2013-06-26 13:56:00,
2013-06-26 09:01:00,91.9,55.4,29.65,South,179,6.7,10.1,30,0.00,,,0.00,WUHU216WMR968SP,2013-06-26 14:01:00,
2013-06-26 09:06:00,93.2,55.4,29.65,South,189,5.5,10.1,28,0.00,,,0.00,WUHU216WMR968SP,2013-06-26 14:06:00,
2013-06-26 09:11:00,92.8,55.4,29.62,SSW,198,5.4,8.1,29,0.00,,,0.00,WUHU216WMR968SP,2013-06-26 14:11:00,
2013-06-26 09:16:00,92.8,55.4,29.62,SSW,206,6.3,11.0,28,0.00,,,0.00,WUHU216WMR968SP,2013-06-26 14:16:00,
2013-06-26 09:21:00,93.2,55.4,29.62,South,171,7.2,11.0,28,0.00,,,0.00,WUHU216WMR968SP,2013-06-26 14:21:00,
2013-06-26 09:26:00,94.1,57.2,29.62,South,180,5.8,10.5,28,0.00,,,0.00,WUHU216WMR968SP,2013-06-26 14:26:00,
2013-06-26 09:31:00,94.5,55.4,29.62,South,179,7.6,9.2,27,0.00,,,0.00,WUHU216WMR968SP,2013-06-26 14:31:00,
2013-06-26 09:36:00,95.4,55.4,29.62,SSE,157,5.8,10.1,27,0.00,,,0.00,WUHU216WMR968SP,2013-06-26 14:36:00,
2013-06-26 09:41:00,95.7,55.4,29.62,SSW,205,5.4,10.1,26,0.00,,,0.00,WUHU216WMR968SP,2013-06-26 14:41:00,
2013-06-26 09:46:00,94.1,55.4,29.62,South,177,4.5,10.1,27,0.00,,,0.00,WUHU216WMR968SP,2013-06-26 14:46:00,
2013-06-26 09:51:00,91.2,55.4,29.62,SSW,206,3.5,8.7,30,0.00,,,0.00,WUHU216WMR968SP,2013-06-26 14:51:00,
2013-06-26 09:56:00,90.0,55.4,29.62,South,174,7.8,10.5,32,0.00,,,0.00,WUHU216WMR968SP,2013-06-26 14:56:00,
2013-06-26 10:01:00,89.4,57.2,29.62,SSW,196,8.1,10.5,34,0.00,,,0.00,WUHU216WMR968SP,2013-06-26 15:01:00,
2013-06-26 10:06:00,89.4,55.4,29.62,SSW,196,9.0,13.2,32,0.00,,,0.00,WUHU216WMR968SP,2013-06-26 15:06:00,
2013-06-26 10:11:00,89.8,57.2,29.62,South,190,8.1,13.2,34,0.00,,,0.00,WUHU216WMR968SP,2013-06-26 15:11:00,
2013-06-26 10:16:00,90.3,57.2,29.62,SSE,158,8.3,11.0,34,0.00,,,0.00,WUHU216WMR968SP,2013-06-26 15:16:00,
2013-06-26 10:21:00,90.5,57.2,29.62,SSW,199,6.7,10.5,32,0.00,,,0.00,WUHU216WMR968SP,2013-06-26 15:21:00,
2013-06-26 10:26:00,90.0,57.2,29.59,South,186,8.1,10.5,33,0.00,,,0.00,WUHU216WMR968SP,2013-06-26 15:26:00,
2013-06-26 10:31:00,90.3,57.2,29.59,SSW,194,7.7,12.8,33,0.00,,,0.00,WUHU216WMR968SP,2013-06-26 15:31:00,
2013-06-26 10:36:00,90.9,57.2,29.59,SSW,195,5.4,12.8,32,0.00,,,0.00,WUHU216WMR968SP,2013-06-26 15:36:00,
2013-06-26 10:41:00,91.0,57.2,29.62,South,175,8.1,10.1,31,0.00,,,0.00,WUHU216WMR968SP,2013-06-26 15:41:00,
2013-06-26 10:46:00,91.6,55.4,29.62,SSW,200,7.1,15.4,30,0.00,,,0.00,WUHU216WMR968SP,2013-06-26 15:46:00,
2013-06-26 10:51:00,92.3,57.2,29.62,South,186,6.3,15.4,30,0.00,,,0.00,WUHU216WMR968SP,2013-06-26 15:51:00,
2013-06-26 10:56:00,92.5,55.4,29.62,South,179,8.7,12.8,29,0.00,,,0.00,WUHU216WMR968SP,2013-06-26 15:56:00,
2013-06-26 11:01:00,92.7,55.4,29.62,SSW,192,8.7,12.8,29,0.00,,,0.00,WUHU216WMR968SP,2013-06-26 16:01:00,
2013-06-26 11:06:00,91.9,55.4,29.62,SSW,197,6.7,11.0,29,0.00,,,0.00,WUHU216WMR968SP,2013-06-26 16:06:00,
2013-06-26 11:11:00,91.9,53.6,29.62,SW,219,5.2,10.5,28,0.00,,,0.00,WUHU216WMR968SP,2013-06-26 16:11:00,
2013-06-26 11:16:00,91.2,55.4,29.62,SSW,205,6.9,10.5,29,0.00,,,0.00,WUHU216WMR968SP,2013-06-26 16:16:00,
2013-06-26 11:21:00,91.4,55.4,29.62,South,190,7.2,13.2,29,0.00,,,0.00,WUHU216WMR968SP,2013-06-26 16:21:00,
2013-06-26 11:26:00,91.6,55.4,29.62,SSW,197,7.2,13.2,29,0.00,,,0.00,WUHU216WMR968SP,2013-06-26 16:26:00,
2013-06-26 11:31:00,91.8,55.4,29.62,SSW,210,8.1,11.0,29,0.00,,,0.00,WUHU216WMR968SP,2013-06-26 16:31:00,
2013-06-26 11:36:00,91.6,53.6,29.62,SSW,212,6.5,13.2,28,0.00,,,0.00,WUHU216WMR968SP,2013-06-26 16:36:00,
2013-06-26 11:41:00,91.4,53.6,29.62,SSW,199,7.6,15.0,28,0.00,,,0.00,WUHU216WMR968SP,2013-06-26 16:41:00,
2013-06-26 11:46:00,91.6,53.6,29.62,South,187,7.2,15.4,28,0.00,,,0.00,WUHU216WMR968SP,2013-06-26 16:46:00,
2013-06-26 11:51:00,90.7,55.4,29.62,SW,222,7.2,15.4,29,0.00,,,0.00,WUHU216WMR968SP,2013-06-26 16:51:00,
2013-06-26 11:56:00,90.3,53.6,29.62,SSW,205,5.5,12.8,30,0.00,,,0.00,WUHU216WMR968SP,2013-06-26 16:56:00,
2013-06-26 12:01:00,90.5,55.4,29.62,South,186,4.9,11.0,29,0.00,,,0.00,WUHU216WMR968SP,2013-06-26 17:01:00,
2013-06-26 12:06:00,90.9,55.4,29.62,SW,229,6.0,11.9,29,0.00,,,0.00,WUHU216WMR968SP,2013-06-26 17:06:00,
2013-06-26 12:11:00,90.7,55.4,29.62,SSW,192,7.6,11.9,29,0.00,,,0.00,WUHU216WMR968SP,2013-06-26 17:11:00,
2013-06-26 12:16:00,91.0,55.4,29.62,SSW,201,8.3,13.2,29,0.00,,,0.00,WUHU216WMR968SP,2013-06-26 17:16:00,
2013-06-26 12:21:00,91.2,55.4,29.62,SW,215,6.4,13.2,29,0.00,,,0.00,WUHU216WMR968SP,2013-06-26 17:21:00,
2013-06-26 12:26:00,91.2,55.4,29.62,SW,221,4.3,13.2,30,0.00,,,0.00,WUHU216WMR968SP,2013-06-26 17:26:00,
2013-06-26 12:31:00,91.2,55.4,29.62,South,190,5.9,10.5,29,0.00,,,0.00,WUHU216WMR968SP,2013-06-26 17:31:00,
2013-06-26 12:36:00,91.2,53.6,29.62,SSW,205,6.8,10.5,28,0.00,,,0.00,WUHU216WMR968SP,2013-06-26 17:36:00,
2013-06-26 12:41:00,91.2,53.6,29.62,SSW,200,7.3,11.0,28,0.00,,,0.00,WUHU216WMR968SP,2013-06-26 17:41:00,
2013-06-26 12:46:00,91.4,53.6,29.62,SSW,192,7.2,11.0,28,0.00,,,0.00,WUHU216WMR968SP,2013-06-26 17:46:00,
2013-06-26 12:51:00,91.6,53.6,29.62,SW,215,5.4,10.5,28,0.00,,,0.00,WUHU216WMR968SP,2013-06-26 17:51:00,
2013-06-26 12:56:00,91.9,53.6,29.59,SSW,198,5.7,12.8,28,0.00,,,0.00,WUHU216WMR968SP,2013-06-26 17:56:00,
2013-06-26 13:01:00,92.3,55.4,29.59,SW,215,4.8,12.8,28,0.00,,,0.00,WUHU216WMR968SP,2013-06-26 18:01:00,
2013-06-26 13:06:00,92.7,55.4,29.59,SSW,204,4.8,11.0,28,0.00,,,0.00,WUHU216WMR968SP,2013-06-26 18:06:00,
2013-06-26 13:11:00,92.5,55.4,29.59,SSW,198,5.4,10.1,28,0.00,,,0.00,WUHU216WMR968SP,2013-06-26 18:11:00,
2013-06-26 13:16:00,92.8,53.6,29.59,South,191,5.4,10.5,27,0.00,,,0.00,WUHU216WMR968SP,2013-06-26 18:16:00,
2013-06-26 13:21:00,93.0,53.6,29.59,SW,220,4.5,10.5,27,0.00,,,0.00,WUHU216WMR968SP,2013-06-26 18:21:00,
2013-06-26 13:26:00,93.2,55.4,29.59,SSW,198,5.8,9.6,29,0.00,,,0.00,WUHU216WMR968SP,2013-06-26 18:26:00,
2013-06-26 13:31:00,93.2,53.6,29.59,SSE,155,7.6,11.0,27,0.00,,,0.00,WUHU216WMR968SP,2013-06-26 18:31:00,
2013-06-26 13:36:00,92.8,55.4,29.59,South,185,6.7,11.0,29,0.00,,,0.00,WUHU216WMR968SP,2013-06-26 18:36:00,
2013-06-26 13:41:00,93.6,55.4,29.59,SSW,199,6.9,8.7,29,0.00,,,0.00,WUHU216WMR968SP,2013-06-26 18:41:00,
2013-06-26 13:46:00,93.9,53.6,29.59,SSW,198,7.2,9.6,27,0.00,,,0.00,WUHU216WMR968SP,2013-06-26 18:46:00,
2013-06-26 13:51:00,93.7,55.4,29.59,SW,228,4.0,10.5,28,0.00,,,0.00,WUHU216WMR968SP,2013-06-26 18:51:00,
2013-06-26 13:56:00,93.7,55.4,29.56,SSW,196,8.0,12.3,28,0.00,,,0.00,WUHU216WMR968SP,2013-06-26 18:56:00,
2013-06-26 14:01:00,93.9,53.6,29.56,WSW,257,6.7,12.3,27,0.00,,,0.00,WUHU216WMR968SP,2013-06-26 19:01:00,
2013-06-26 14:06:00,94.1,55.4,29.56,SSW,197,5.0,10.1,27,0.00,,,0.00,WUHU216WMR968SP,2013-06-26 19:06:00,
2013-06-26 14:11:00,94.5,57.2,29.56,SW,233,3.4,10.1,28,0.00,,,0.00,WUHU216WMR968SP,2013-06-26 19:11:00,
2013-06-26 14:16:00,94.1,55.4,29.56,South,187,5.6,8.7,27,0.00,,,0.00,WUHU216WMR968SP,2013-06-26 19:16:00,
2013-06-26 14:21:00,93.6,53.6,29.56,SSW,195,8.1,10.5,27,0.00,,,0.00,WUHU216WMR968SP,2013-06-26 19:21:00,
2013-06-26 14:26:00,92.8,55.4,29.56,SSW,193,6.7,10.5,28,0.00,,,0.00,WUHU216WMR968SP,2013-06-26 19:26:00,
2013-06-26 14:31:00,92.3,55.4,29.56,SW,219,4.0,9.6,28,0.00,,,0.00,WUHU216WMR968SP,2013-06-26 19:31:00,
2013-06-26 14:36:00,92.1,53.6,29.56,SSW,210,5.7,9.6,28,0.00,,,0.00,WUHU216WMR968SP,2013-06-26 19:36:00,
2013-06-26 14:41:00,92.3,55.4,29.56,SSW,203,6.3,10.1,28,0.00,,,0.00,WUHU216WMR968SP,2013-06-26 19:41:00,
2013-06-26 14:46:00,92.7,55.4,29.56,SSW,205,4.7,10.1,29,0.00,,,0.00,WUHU216WMR968SP,2013-06-26 19:46:00,
2013-06-26 14:51:00,92.8,55.4,29.56,SSW,205,6.7,10.5,29,0.00,,,0.00,WUHU216WMR968SP,2013-06-26 19:51:00,
2013-06-26 14:56:00,92.8,55.4,29.56,SSW,206,7.2,12.8,29,0.00,,,0.00,WUHU216WMR968SP,2013-06-26 19:56:00,
2013-06-26 15:01:00,92.7,55.4,29.56,SSW,195,6.3,12.8,28,0.00,,,0.00,WUHU216WMR968SP,2013-06-26 20:01:00,
2013-06-26 15:06:00,92.5,55.4,29.56,SSW,203,5.2,10.5,29,0.00,,,0.00,WUHU216WMR968SP,2013-06-26 20:06:00,
2013-06-26 15:11:00,92.7,55.4,29.56,South,189,6.6,11.0,29,0.00,,,0.00,WUHU216WMR968SP,2013-06-26 20:11:00,
2013-06-26 15:16:00,92.5,55.4,29.56,SSW,202,5.4,11.0,28,0.00,,,0.00,WUHU216WMR968SP,2013-06-26 20:16:00,
2013-06-26 15:21:00,92.3,57.2,29.56,SSW,209,4.9,8.7,30,0.00,,,0.00,WUHU216WMR968SP,2013-06-26 20:21:00,
2013-06-26 15:26:00,92.1,55.4,29.56,SSW,193,7.2,8.7,29,0.00,,,0.00,WUHU216WMR968SP,2013-06-26 20:26:00,
2013-06-26 15:31:00,92.5,55.4,29.56,SW,226,5.4,8.7,29,0.00,,,0.00,WUHU216WMR968SP,2013-06-26 20:31:00,
2013-06-26 15:36:00,91.9,55.4,29.56,SSW,205,5.8,8.7,29,0.00,,,0.00,WUHU216WMR968SP,2013-06-26 20:36:00,
2013-06-26 15:41:00,91.4,55.4,29.53,SSW,200,6.8,8.3,29,0.00,,,0.00,WUHU216WMR968SP,2013-06-26 20:41:00,
2013-06-26 15:46:00,91.0,55.4,29.53,SSW,203,6.7,8.3,30,0.00,,,0.00,WUHU216WMR968SP,2013-06-26 20:46:00,
2013-06-26 15:51:00,91.2,57.2,29.53,SSW,208,5.8,8.7,31,0.00,,,0.00,WUHU216WMR968SP,2013-06-26 20:51:00,
2013-06-26 15:56:00,91.2,55.4,29.53,SSW,197,5.1,8.7,30,0.00,,,0.00,WUHU216WMR968SP,2013-06-26 20:56:00,
2013-06-26 16:01:00,91.0,55.4,29.53,SSW,196,8.7,13.2,30,0.00,,,0.00,WUHU216WMR968SP,2013-06-26 21:01:00,
2013-06-26 16:06:00,91.0,57.2,29.53,WSW,239,6.3,13.2,31,0.00,,,0.00,WUHU216WMR968SP,2013-06-26 21:06:00,
2013-06-26 16:11:00,91.0,55.4,29.53,SSW,193,5.8,11.0,30,0.00,,,0.00,WUHU216WMR968SP,2013-06-26 21:11:00,
2013-06-26 16:16:00,91.0,55.4,29.53,SSW,198,5.2,8.3,30,0.00,,,0.00,WUHU216WMR968SP,2013-06-26 21:16:00,
2013-06-26 16:21:00,91.0,55.4,29.53,SSW,198,5.8,8.7,30,0.00,,,0.00,WUHU216WMR968SP,2013-06-26 21:21:00,
2013-06-26 16:26:00,90.9,55.4,29.53,SSW,204,4.7,8.7,30,0.00,,,0.00,WUHU216WMR968SP,2013-06-26 21:26:00,
2013-06-26 16:31:00,91.0,55.4,29.53,SSW,206,5.2,8.1,30,0.00,,,0.00,WUHU216WMR968SP,2013-06-26 21:31:00,
2013-06-26 16:36:00,91.2,57.2,29.53,SSW,206,5.8,9.6,31,0.00,,,0.00,WUHU216WMR968SP,2013-06-26 21:36:00,
2013-06-26 16:41:00,91.6,55.4,29.50,South,185,4.2,9.6,30,0.00,,,0.00,WUHU216WMR968SP,2013-06-26 21:41:00,
2013-06-26 16:46:00,91.9,55.4,29.50,South,191,5.2,8.3,29,0.00,,,0.00,WUHU216WMR968SP,2013-06-26 21:46:00,
2013-06-26 16:51:00,91.9,53.6,29.50,SSW,197,6.9,10.1,27,0.00,,,0.00,WUHU216WMR968SP,2013-06-26 21:51:00,
2013-06-26 16:56:00,91.9,51.8,29.50,SSW,196,7.4,10.5,26,0.00,,,0.00,WUHU216WMR968SP,2013-06-26 21:56:00,
2013-06-26 17:01:00,92.3,53.6,29.50,SSW,211,6.6,10.5,27,0.00,,,0.00,WUHU216WMR968SP,2013-06-26 22:01:00,
2013-06-26 17:06:00,92.5,53.6,29.50,SW,221,6.3,11.0,27,0.00,,,0.00,WUHU216WMR968SP,2013-06-26 22:06:00,
2013-06-26 17:11:00,92.1,50.0,29.50,SSW,205,6.5,11.0,24,0.00,,,0.00,WUHU216WMR968SP,2013-06-26 22:11:00,
2013-06-26 17:16:00,91.9,51.8,29.50,SSW,210,7.6,10.1,26,0.00,,,0.00,WUHU216WMR968SP,2013-06-26 22:16:00,
2013-06-26 17:21:00,91.9,51.8,29.50,SSW,198,6.2,10.1,26,0.00,,,0.00,WUHU216WMR968SP,2013-06-26 22:21:00,
2013-06-26 17:26:00,92.3,53.6,29.50,SW,225,3.6,10.1,27,0.00,,,0.00,WUHU216WMR968SP,2013-06-26 22:26:00,
2013-06-26 17:31:00,92.7,53.6,29.50,South,182,4.9,7.6,27,0.00,,,0.00,WUHU216WMR968SP,2013-06-26 22:31:00,
2013-06-26 17:36:00,92.7,53.6,29.50,SSW,197,3.8,7.6,27,0.00,,,0.00,WUHU216WMR968SP,2013-06-26 22:36:00,
2013-06-26 17:41:00,92.5,53.6,29.50,SSW,202,5.4,10.1,27,0.00,,,0.00,WUHU216WMR968SP,2013-06-26 22:41:00,
2013-06-26 17:46:00,92.3,53.6,29.50,SSW,206,5.4,10.1,27,0.00,,,0.00,WUHU216WMR968SP,2013-06-26 22:46:00,
2013-06-26 17:51:00,92.5,53.6,29.50,South,190,4.9,9.2,27,0.00,,,0.00,WUHU216WMR968SP,2013-06-26 22:51:00,
2013-06-26 17:56:00,92.5,53.6,29.50,SSW,207,5.0,8.3,27,0.00,,,0.00,WUHU216WMR968SP,2013-06-26 22:56:00,
2013-06-26 18:01:00,93.0,53.6,29.50,South,187,5.0,8.3,26,0.00,,,0.00,WUHU216WMR968SP,2013-06-26 23:01:00,
2013-06-26 18:06:00,93.4,50.0,29.50,South,191,5.8,8.1,23,0.00,,,0.00,WUHU216WMR968SP,2013-06-26 23:06:00,
2013-06-26 18:11:00,93.2,50.0,29.50,SW,215,4.6,8.1,23,0.00,,,0.00,WUHU216WMR968SP,2013-06-26 23:11:00,
2013-06-26 18:16:00,95.4,50.0,29.50,South,178,4.5,8.1,22,0.00,,,0.00,WUHU216WMR968SP,2013-06-26 23:16:00,
2013-06-26 18:21:00,95.5,48.2,29.50,SSW,206,4.5,8.1,20,0.00,,,0.00,WUHU216WMR968SP,2013-06-26 23:21:00,
2013-06-26 18:26:00,95.9,50.0,29.50,SSW,212,4.0,8.1,21,0.00,,,0.00,WUHU216WMR968SP,2013-06-26 23:26:00,
2013-06-26 18:31:00,97.9,51.8,29.50,SSW,192,4.1,6.7,21,0.00,,,0.00,WUHU216WMR968SP,2013-06-26 23:31:00,
2013-06-26 18:36:00,98.2,50.0,29.50,SSW,200,3.8,6.3,20,0.00,,,0.00,WUHU216WMR968SP,2013-06-26 23:36:00,
2013-06-26 18:41:00,97.3,50.0,29.50,SSW,203,3.1,6.3,21,0.00,,,0.00,WUHU216WMR968SP,2013-06-26 23:41:00,
2013-06-26 18:46:00,97.5,50.0,29.50,SSW,198,4.1,5.8,20,0.00,,,0.00,WUHU216WMR968SP,2013-06-26 23:46:00,
2013-06-26 18:51:00,97.3,50.0,29.50,SSW,201,3.1,5.8,20,0.00,,,0.00,WUHU216WMR968SP,2013-06-26 23:51:00,
2013-06-26 18:56:00,97.2,50.0,29.50,SSW,194,3.6,4.9,21,0.00,,,0.00,WUHU216WMR968SP,2013-06-26 23:56:00,
2013-06-26 19:01:00,97.0,50.0,29.50,South,186,3.1,7.6,21,0.00,,,0.00,WUHU216WMR968SP,2013-06-27 00:01:00,
2013-06-26 19:06:00,96.6,50.0,29.50,SSW,209,3.2,7.6,21,0.00,,,0.00,WUHU216WMR968SP,2013-06-27 00:06:00,
2013-06-26 19:11:00,96.1,50.0,29.50,SSW,199,3.3,6.3,21,0.00,,,0.00,WUHU216WMR968SP,2013-06-27 00:11:00,
2013-06-26 19:16:00,95.0,50.0,29.50,SSW,197,3.7,7.2,22,0.00,,,0.00,WUHU216WMR968SP,2013-06-27 00:16:00,
2013-06-26 19:21:00,93.9,50.0,29.50,SSW,203,3.5,7.2,23,0.00,,,0.00,WUHU216WMR968SP,2013-06-27 00:21:00,
2013-06-26 19:26:00,91.8,50.0,29.50,South,191,4.5,6.3,25,0.00,,,0.00,WUHU216WMR968SP,2013-06-27 00:26:00,
2013-06-26 19:31:00,90.0,51.8,29.50,SSW,195,4.9,6.3,28,0.00,,,0.00,WUHU216WMR968SP,2013-06-27 00:31:00,
2013-06-26 19:36:00,88.2,51.8,29.50,South,187,4.5,8.1,29,0.00,,,0.00,WUHU216WMR968SP,2013-06-27 00:36:00,
2013-06-26 19:41:00,87.1,51.8,29.50,SSW,201,4.2,8.1,30,0.00,,,0.00,WUHU216WMR968SP,2013-06-27 00:41:00,
2013-06-26 19:46:00,86.4,51.8,29.50,SSW,202,4.0,6.3,31,0.00,,,0.00,WUHU216WMR968SP,2013-06-27 00:46:00,
2013-06-26 19:51:00,85.6,53.6,29.50,SW,219,3.6,6.3,32,0.00,,,0.00,WUHU216WMR968SP,2013-06-27 00:51:00,
2013-06-26 19:56:00,85.1,53.6,29.50,SSW,197,3.5,5.8,33,0.00,,,0.00,WUHU216WMR968SP,2013-06-27 00:56:00,
2013-06-26 20:01:00,84.6,53.6,29.50,South,190,3.6,5.4,34,0.00,,,0.00,WUHU216WMR968SP,2013-06-27 01:01:00,
2013-06-26 20:06:00,84.0,53.6,29.50,South,171,4.0,5.4,34,0.00,,,0.00,WUHU216WMR968SP,2013-06-27 01:06:00,
2013-06-26 20:11:00,83.8,53.6,29.50,SSW,198,4.1,5.8,34,0.00,,,0.00,WUHU216WMR968SP,2013-06-27 01:11:00,
2013-06-26 20:16:00,83.5,53.6,29.50,SSW,192,5.4,6.3,34,0.00,,,0.00,WUHU216WMR968SP,2013-06-27 01:16:00,
2013-06-26 20:21:00,83.3,53.6,29.50,SSW,198,3.8,6.3,35,0.00,,,0.00,WUHU216WMR968SP,2013-06-27 01:21:00,
2013-06-26 20:26:00,83.1,51.8,29.50,SSW,197,4.8,6.7,35,0.00,,,0.00,WUHU216WMR968SP,2013-06-27 01:26:00,
2013-06-26 20:31:00,82.8,51.8,29.50,SSW,199,3.6,7.6,35,0.00,,,0.00,WUHU216WMR968SP,2013-06-27 01:31:00,
2013-06-26 20:36:00,82.6,53.6,29.50,SSW,200,3.6,7.6,36,0.00,,,0.00,WUHU216WMR968SP,2013-06-27 01:36:00,
2013-06-26 20:41:00,82.2,53.6,29.50,SSW,195,4.5,5.8,37,0.00,,,0.00,WUHU216WMR968SP,2013-06-27 01:41:00,
2013-06-26 20:46:00,82.0,53.6,29.50,SSW,209,3.1,7.6,38,0.00,,,0.00,WUHU216WMR968SP,2013-06-27 01:46:00,
2013-06-26 20:51:00,81.9,53.6,29.50,SSW,199,3.7,7.6,38,0.00,,,0.00,WUHU216WMR968SP,2013-06-27 01:51:00,
2013-06-26 20:56:00,81.7,55.4,29.50,South,189,3.1,6.3,39,0.00,,,0.00,WUHU216WMR968SP,2013-06-27 01:56:00,
2013-06-26 21:01:00,81.5,55.4,29.50,SSW,199,4.0,5.8,39,0.00,,,0.00,WUHU216WMR968SP,2013-06-27 02:01:00,
2013-06-26 21:06:00,81.3,53.6,29.50,SSW,198,4.0,5.8,39,0.00,,,0.00,WUHU216WMR968SP,2013-06-27 02:06:00,
2013-06-26 21:11:00,81.1,53.6,29.50,SSW,206,3.6,5.4,40,0.00,,,0.00,WUHU216WMR968SP,2013-06-27 02:11:00,
2013-06-26 21:16:00,81.0,53.6,29.50,SSW,201,3.1,5.4,40,0.00,,,0.00,WUHU216WMR968SP,2013-06-27 02:16:00,
2013-06-26 21:21:00,80.8,53.6,29.50,SSW,195,2.6,4.5,40,0.00,,,0.00,WUHU216WMR968SP,2013-06-27 02:21:00,
2013-06-26 21:26:00,80.6,55.4,29.50,SSW,194,2.7,4.0,41,0.00,,,0.00,WUHU216WMR968SP,2013-06-27 02:26:00,
2013-06-26 21:31:00,80.6,55.4,29.50,SSW,196,3.1,4.0,41,0.00,,,0.00,WUHU216WMR968SP,2013-06-27 02:31:00,
2013-06-26 21:36:00,80.4,55.4,29.50,SSW,204,3.1,4.0,42,0.00,,,0.00,WUHU216WMR968SP,2013-06-27 02:36:00,
2013-06-26 21:41:00,80.2,55.4,29.53,South,188,2.9,3.6,42,0.00,,,0.00,WUHU216WMR968SP,2013-06-27 02:41:00,
2013-06-26 21:46:00,80.1,55.4,29.53,SSW,192,2.2,3.6,42,0.00,,,0.00,WUHU216WMR968SP,2013-06-27 02:46:00,
2013-06-26 21:51:00,80.1,55.4,29.53,SSW,201,2.5,3.6,42,0.00,,,0.00,WUHU216WMR968SP,2013-06-27 02:51:00,
2013-06-26 21:56:00,79.9,55.4,29.53,South,183,2.7,4.0,43,0.00,,,0.00,WUHU216WMR968SP,2013-06-27 02:56:00,
2013-06-26 22:01:00,79.7,55.4,29.53,SSW,193,0.0,4.0,43,0.00,,,0.00,WUHU216WMR968SP,2013-06-27 03:01:00,
2013-06-26 22:06:00,79.5,55.4,29.53,SSW,198,0.0,3.1,44,0.00,,,0.00,WUHU216WMR968SP,2013-06-27 03:06:00,
2013-06-26 22:11:00,79.3,55.4,29.53,South,189,0.0,0.0,44,0.00,,,0.00,WUHU216WMR968SP,2013-06-27 03:11:00,
2013-06-26 22:16:00,79.2,55.4,29.53,SSW,203,0.0,0.0,45,0.00,,,0.00,WUHU216WMR968SP,2013-06-27 03:16:00,
2013-06-26 22:21:00,79.2,55.4,29.53,South,180,0.0,4.9,45,0.00,,,0.00,WUHU216WMR968SP,2013-06-27 03:21:00,
2013-06-26 22:26:00,79.0,57.2,29.53,SSW,201,3.1,4.9,46,0.00,,,0.00,WUHU216WMR968SP,2013-06-27 03:26:00,
2013-06-26 22:31:00,78.8,57.2,29.53,SSW,198,2.8,4.0,48,0.00,,,0.00,WUHU216WMR968SP,2013-06-27 03:31:00,
2013-06-26 22:36:00,78.8,57.2,29.53,South,189,3.0,4.0,49,0.00,,,0.00,WUHU216WMR968SP,2013-06-27 03:36:00,
2013-06-26 22:41:00,78.6,57.2,29.53,South,188,3.1,4.0,49,0.00,,,0.00,WUHU216WMR968SP,2013-06-27 03:41:00,
2013-06-26 22:46:00,78.3,57.2,29.53,South,187,3.9,5.8,49,0.00,,,0.00,WUHU216WMR968SP,2013-06-27 03:46:00,
2013-06-26 22:51:00,77.9,59.0,29.53,South,187,4.3,6.3,51,0.00,,,0.00,WUHU216WMR968SP,2013-06-27 03:51:00,
2013-06-26 22:56:00,77.9,60.8,29.53,South,180,4.0,6.3,54,0.00,,,0.00,WUHU216WMR968SP,2013-06-27 03:56:00,
2013-06-26 23:01:00,78.1,60.8,29.53,SSW,198,4.3,6.3,55,0.00,,,0.00,WUHU216WMR968SP,2013-06-27 04:01:00,
2013-06-26 23:06:00,78.1,60.8,29.53,SSW,205,4.5,6.3,54,0.00,,,0.00,WUHU216WMR968SP,2013-06-27 04:06:00,
2013-06-26 23:11:00,77.9,60.8,29.53,SSW,196,4.9,5.8,54,0.00,,,0.00,WUHU216WMR968SP,2013-06-27 04:11:00,
2013-06-26 23:16:00,77.7,59.0,29.53,South,184,4.6,6.3,55,0.00,,,0.00,WUHU216WMR968SP,2013-06-27 04:16:00,
2013-06-26 23:21:00,77.7,60.8,29.53,South,184,4.9,6.3,57,0.00,,,0.00,WUHU216WMR968SP,2013-06-27 04:21:00,
2013-06-26 23:26:00,77.9,62.6,29.50,SSW,199,3.2,6.3,56,0.00,,,0.00,WUHU216WMR968SP,2013-06-27 04:26:00,
2013-06-26 23:31:00,78.1,62.6,29.50,SSW,193,4.0,5.8,56,0.00,,,0.00,WUHU216WMR968SP,2013-06-27 04:31:00,
2013-06-26 23:36:00,78.3,62.6,29.50,SSW,193,4.0,6.3,56,0.00,,,0.00,WUHU216WMR968SP,2013-06-27 04:36:00,
2013-06-26 23:41:00,78.4,60.8,29.53,South,186,4.9,6.3,55,0.00,,,0.00,WUHU216WMR968SP,2013-06-27 04:41:00,
2013-06-26 23:46:00,78.3,60.8,29.53,SSW,192,4.5,6.3,54,0.00,,,0.00,WUHU216WMR968SP,2013-06-27 04:46:00,
2013-06-26 23:51:00,78.1,60.8,29.53,SSE,156,4.9,7.2,55,0.00,,,0.00,WUHU216WMR968SP,2013-06-27 04:51:00,
2013-06-26 23:56:00,77.9,60.8,29.53,South,184,4.9,7.2,55,0.00,,,0.00,WUHU216WMR968SP,2013-06-27 04:56:00,